Location: Chojnik
(51.4390°N, 17.6977°E)
Time: 23:51:08
(UTC+00:00)

Daily predictions for brighter satellites

Satellite Brightness Start Highest point End
(mag) Time Altitude Azimuth Time Altitude Azimuth Time Altitude Azimuth
SPOT 1/Viking Rocket 4.0 19:22:58 10° SE 19:27:57 50° ENE 19:32:56 10° N
Resurs 01 Rocket 2.0 19:24:11 10° S 19:28:37 66° WSW 19:33:06 10° NNW
STARLINK-1094 3.9 19:25:31 10° W 19:29:40 72° N 19:33:50 10° E
Cosmos 1816 Rocket 4.5 19:23:58 10° S 19:30:06 78° E 19:36:14 10° NNE
STARLINK-1222 3.7 19:27:30 10° SSW 19:30:14 29° SSE 19:32:59 10° E
NOSS 3-1 (C) 3.4 19:24:55 10° SSW 19:30:25 66° SE 19:36:53 10° NE
STARLINK-1214 3.7 19:28:25 10° SSW 19:31:09 29° SSE 19:33:55 10° E
Sich 1 Rocket 3.9 19:26:37 10° N 19:31:09 58° ENE 19:35:41 10° SSE
NOSS 3-1 (A) 3.6 19:26:19 10° SSW 19:31:34 45° ESE 19:37:39 10° NE
STARLINK-1102 3.8 19:27:40 10° W 19:31:49 76° N 19:35:59 10° ENE
STARLINK-1095 3.7 19:28:17 10° WNW 19:32:25 69° SSW 19:36:32 10° ESE
Cosmos 1190 Rocket 4.1 19:27:28 10° NNW 19:32:43 89° ENE 19:37:57 10° SSE
H-2A R/B 4.5 19:29:22 10° SW 19:32:57 19° W 19:36:37 10° NW
Abrixas rocket 2.9 19:31:07 10° SW 19:33:44 29° SSE 19:36:21 10° E
CREW DRAGON DEMO-1 DEB 4.2 19:31:14 10° W 19:33:57 28° SSW 19:36:41 10° SSE
STARLINK-1117 3.9 19:30:30 10° WNW 19:34:40 73° N 19:38:48 10° E
STARLINK-1111 3.9 19:32:38 10° W 19:36:48 75° N 19:40:57 10° ENE
STARLINK-1077 3.7 19:33:15 10° WNW 19:37:22 66° SSW 19:41:29 10° ESE
Cosmos 2279 Rocket 4.5 19:31:30 10° N 19:37:33 48° ENE 19:43:32 10° SE
Meteor 1-4 Rocket 3.0 19:34:21 10° SSE 19:37:35 39° E 19:40:50 10° NNE
CENTAUR R/B 4.5 19:31:14 10° NW 19:37:44 34° N 19:45:07 10° ENE
Cosmos 1624 Rocket 4.3 19:32:48 10° S 19:37:52 48° ESE 19:43:00 10° NE
SPOT 5 3.8 19:33:49 10° SE 19:38:37 42° ENE 19:43:36 10° N
STARLINK-1078 3.8 19:35:29 10° WNW 19:39:38 75° N 19:43:48 10° E
Cosmos 1782 Rocket 3.7 19:35:35 10° NNW 19:40:05 83° W 19:44:34 10° S
Aureole 1 Rocket 3.1 19:36:29 10° NNW 19:40:19 80° WSW 19:45:18 10° SSE
STARLINK-1073 3.9 19:37:38 10° W 19:41:48 74° N 19:45:57 10° ENE
STARLINK-1075 3.8 19:38:15 10° WNW 19:42:21 62° SSW 19:46:27 10° SE
NOSS 2-3 (C) 4.1 19:38:28 10° SSW 19:42:32 41° ESE 19:47:19 10° NE
MetOp-B 4.3 19:37:59 10° SSE 19:43:21 80° WSW 19:48:45 10° NNW
STARLINK-1108 3.8 19:40:28 10° WNW 19:44:38 76° N 19:48:47 10° E
Cosmos 1140 Rocket 3.6 19:39:44 10° NNW 19:44:57 82° WSW 19:50:10 10° SSE
STARLINK-1211 4.5 19:43:05 10° SSW 19:46:37 28° SE 19:50:10 10° E
STARLINK-1121 3.9 19:42:36 10° W 19:46:46 72° N 19:50:55 10° E
STARLINK-1093 3.8 19:43:14 10° WNW 19:47:19 59° SSW 19:51:24 10° SE
Okean 2 Rocket 3.4 19:44:03 10° N 19:48:27 54° ENE 19:52:46 10° SSE
BREEZE M DEB (TANK) 4.5 19:44:32 10° SSW 19:48:56 19° SSE 19:51:16 10° ESE
Intercosmos 24 4.2 19:45:14 10° N 19:49:07 46° ENE 19:52:29 10° SSE
STARLINK-1071 3.8 19:45:27 10° WNW 19:49:36 78° N 19:53:46 10° E
Cosmos 1703 Rocket 3.8 19:45:21 10° SSW 19:49:41 73° WNW 19:54:02 10° N
STARLINK-1245 4.4 19:47:58 10° SSW 19:51:35 30° SE 19:55:13 10° E
Cosmos 1371 Rocket 4.0 19:46:29 10° SSW 19:51:42 67° ESE 19:56:53 10° NNE
STARLINK-1106 3.9 19:47:36 10° W 19:51:45 72° N 19:55:54 10° E
STARLINK-1074 3.9 19:48:13 10° WNW 19:52:17 56° SSW 19:56:13 11° SE
Cosmos 1634 Rocket 4.1 19:45:57 10° N 19:52:17 88° E 19:58:38 10° S
Cosmos 1743 4.2 19:49:20 10° NNW 19:52:51 35° W 19:56:19 10° SSW
STARLINK-1110 3.7 19:49:39 10° WNW 19:53:49 79° N 19:57:59 10° E
Cosmos 1544 3.4 19:51:49 10° NNW 19:55:27 64° W 19:59:01 10° S
STARLINK-1233 4.3 19:52:50 10° SSW 19:56:31 31° SE 20:00:13 10° E
STARLINK-1112 3.9 19:52:36 10° W 19:56:45 71° N 20:00:54 10° E
Cosmos 2082 Rocket 2.7 19:51:22 10° NNW 19:57:01 54° NE 20:02:27 11° SE
SAR-Lupe-2 3.6 19:53:43 10° NNE 19:57:19 67° ESE 20:00:54 10° S
Landsat 7 3.9 19:52:58 10° SSE 19:57:44 84° WSW 20:02:32 10° NNW
CZ-4B DEB 4.4 19:56:13 10° SSE 19:59:29 74° ENE 20:02:50 10° N
STARLINK-1124 3.7 19:55:26 10° WNW 19:59:35 81° NNE 20:03:45 10° E
Cosmos 1954 Rocket 4.1 19:54:39 10° NNW 19:59:56 89° ENE 20:05:03 11° SSE
ERBS 4.0 20:00:02 12° SSE 20:01:03 14° SE 20:02:51 10° E
Cosmos 2151 Rocket 4.0 19:56:59 10° N 20:01:26 52° ENE 20:05:30 12° SSE
STARLINK-1204 4.2 19:57:44 10° SSW 20:01:29 34° SE 20:05:14 10° E
STARLINK-1128 3.9 19:57:36 10° W 20:01:45 70° N 20:05:54 10° E
STARLINK-1088 4.0 19:58:11 10° WNW 20:02:12 50° SSW 20:05:46 13° SE
STARLINK-1122 3.7 20:00:25 10° WNW 20:04:35 84° NNE 20:08:44 10° ESE
ERS-1 Rocket 3.0 20:00:29 10° SSE 20:05:27 75° ENE 20:10:31 10° NNW
Cosmos 1833 Rocket 2.7 20:00:19 10° NNW 20:05:59 88° ENE 20:11:09 12° SSE
SeaSat 1 4.0 20:02:58 10° ENE 20:06:07 17° ESE 20:08:32 12° SE
Okean 1 Rocket 4.3 20:02:09 10° N 20:06:08 30° ENE 20:09:39 12° SE
STARLINK-1238 4.2 20:02:36 10° SSW 20:06:24 36° SE 20:10:12 10° E
STARLINK-1113 3.9 20:02:34 10° W 20:06:44 70° N 20:10:52 10° E
STARLINK-1115 4.1 20:03:10 10° WNW 20:07:10 47° SSW 20:10:33 14° SE
Cosmos 1975 3.7 20:03:32 10° NNW 20:07:28 47° W 20:11:21 10° SSW
STARLINK-1126 3.6 20:05:20 10° WNW 20:09:30 86° NNE 20:13:40 10° ESE
Spot 2 Rocket 4.0 20:06:01 10° S 20:10:58 57° W 20:15:58 10° NNW
CZ-2C R/B 4.2 20:05:51 10° N 20:11:01 41° WNW 20:16:14 10° SW
STARLINK-1201 4.1 20:07:32 10° SW 20:11:22 38° SSE 20:15:14 10° ENE
STARLINK-1119 3.9 20:07:34 10° W 20:11:43 70° N 20:15:52 10° E
STARLINK-1076 4.2 20:08:09 10° WNW 20:12:07 44° SSW 20:15:20 15° SE
Cosmos 676 Rocket 4.2 20:07:24 10° NNW 20:12:37 72° WSW 20:17:33 12° SSE
STARLINK-1082 3.6 20:10:23 10° WNW 20:14:33 88° NNE 20:18:42 10° ESE
STARLINK-1206 4.0 20:12:26 10° SW 20:16:19 41° SSE 20:20:14 10° ENE
GENESIS II 4.5 20:12:26 10° NW 20:16:28 61° SW 20:19:36 15° SSE
STARLINK-1114 3.9 20:12:34 10° W 20:16:44 69° N 20:20:52 10° E
STARLINK-1092 4.2 20:13:08 10° WNW 20:17:04 42° SSW 20:20:06 15° SSE
SL-4 R/B 1.5 20:16:16 10° NNW 20:19:31 64° NE 20:21:42 17° SE
STARLINK-1100 3.6 20:15:21 10° WNW 20:19:32 89° S 20:23:41 10° ESE
Cosmos 2056 Rocket 3.5 20:15:14 10° SSW 20:20:21 86° WNW 20:25:31 10° NNE
STARLINK-1205 3.9 20:17:21 10° SW 20:21:17 43° SSE 20:25:13 10° ENE
STARLINK-1130 (DARKSAT) 3.9 20:17:32 10° W 20:21:41 69° N 20:25:50 10° E
STARLINK-1080 4.3 20:18:10 10° WNW 20:22:02 39° SSW 20:24:55 16° SSE
STARLINK-1083 3.6 20:20:20 10° WNW 20:24:30 86° SSW 20:28:30 11° ESE
ISS -3.8 20:22:14 10° W 20:25:36 72° SSW 20:28:26 14° ESE
STARLINK-1218 3.8 20:22:16 10° SW 20:26:14 46° SSE 20:30:12 10° ENE
STARLINK-1084 3.9 20:22:32 10° W 20:26:41 70° N 20:30:50 10° E
STARLINK-1090 4.4 20:23:10 10° WNW 20:27:00 37° SW 20:29:42 17° SSE
STARLINK-1125 3.6 20:25:19 10° WNW 20:29:28 83° SSW 20:33:17 12° ESE
STARLINK-1254 3.8 20:27:12 10° SW 20:31:12 49° SSE 20:35:12 10° ENE
STARLINK-1098 3.9 20:27:32 10° W 20:31:41 70° N 20:35:50 10° E
STARLINK-67 2.6 20:30:04 10° W 20:31:59 48° N 20:33:55 10° ENE
CARTOSAT-1 3.8 20:28:14 13° S 20:32:04 69° WSW 20:36:23 10° NNW
SL-8 R/B 3.7 20:27:43 10° WSW 20:32:28 60° S 20:37:13 10° E
Cosmos 2278 Rocket 2.2 20:27:45 10° SSW 20:33:24 72° ESE 20:39:05 10° NNE
STARLINK-1109 3.6 20:30:17 10° WNW 20:34:26 80° SSW 20:38:03 13° ESE
STARLINK-1231 3.7 20:32:09 10° SW 20:36:11 52° SSE 20:40:12 10° ENE
STARLINK-1123 3.9 20:32:31 10° W 20:36:40 71° N 20:40:49 10° E
STARLINK-1091 3.6 20:35:16 10° WNW 20:39:25 77° SSW 20:42:50 15° ESE
Cosmos 1437 Rocket 2.9 20:37:00 17° S 20:39:40 53° E 20:43:24 10° NNE
Lacrosse 5 1.9 20:35:55 10° WNW 20:40:58 72° SW 20:44:50 17° SE
STARLINK-1232 3.7 20:37:05 10° SW 20:41:08 55° SSE 20:45:11 10° ENE
STARLINK-1097 3.9 20:37:30 10° W 20:41:39 71° N 20:45:48 10° E
NOSS 2-3 (E) 3.9 20:37:44 10° SW 20:42:09 78° NW 20:47:35 10° NE
Terra 1.8 20:38:31 16° SSE 20:42:19 83° WSW 20:47:08 10° NNW
STARLINK-1072 3.6 20:40:15 10° WNW 20:44:24 74° SSW 20:47:37 16° ESE
STARLINK-1208 3.6 20:42:01 10° SW 20:46:06 58° SSE 20:50:10 10° ENE
STARLINK-1099 3.8 20:42:28 10° W 20:46:37 72° N 20:50:46 10° E
STARLINK-1228 3.1 20:43:25 10° WSW 20:46:46 83° NNW 20:50:07 10° ENE
STARLINK-1096 3.6 20:45:15 10° WNW 20:49:23 70° SSW 20:52:26 18° ESE
STARLINK-1234 2.9 20:47:15 10° WSW 20:50:22 83° NNW 20:53:31 10° ENE
Cosmos 1300 Rocket 4.4 20:46:18 10° NNW 20:50:33 45° W 20:54:26 12° SSW
STARLINK-1271 3.6 20:46:59 10° SW 20:51:04 61° SSE 20:55:10 10° ENE
Cosmos 1452 Rocket 3.5 20:46:05 10° SSW 20:51:19 69° ESE 20:56:36 10° NNE
STARLINK-1104 3.8 20:47:28 10° WNW 20:51:37 73° N 20:55:46 10° E
STARLINK-1212 2.7 20:48:35 10° WSW 20:51:42 88° SSE 20:54:49 10° ENE
STARLINK-1209 2.9 20:48:59 10° W 20:52:07 80° NNW 20:55:18 10° ENE
STARLINK-1105 2.7 20:49:04 10° WSW 20:52:11 88° SSE 20:55:17 10° ENE
STARLINK-1247 2.8 20:49:58 10° WSW 20:53:06 89° SSE 20:56:13 10° ENE
Okean 3 4.4 20:49:07 10° SSW 20:53:16 47° WNW 20:57:28 10° N
STARLINK-1227 2.8 20:50:26 10° WSW 20:53:33 89° SSE 20:56:40 10° ENE
Crew Dragon 0.3 20:51:58 10° W 20:54:04 44° SSW 20:54:13 43° S
STARLINK-1079 3.6 20:50:13 10° WNW 20:54:20 67° SSW 20:57:11 19° SE
STARLINK-1226 2.8 20:51:17 10° WSW 20:54:25 89° ENE 20:57:32 10° ENE
STARLINK-1215 2.8 20:52:14 10° WSW 20:55:21 89° N 20:58:30 10° ENE
STARLINK-1154 3.5 20:51:56 10° SW 20:56:03 64° SSE 21:00:09 10° ENE
STARLINK-1144 3.8 20:52:27 10° WNW 20:56:37 74° N 21:00:46 10° E
STARLINK-1217 2.8 20:54:00 10° WSW 20:57:07 88° NNW 21:00:15 10° ENE
STARLINK-1229 2.8 20:54:55 10° WSW 20:58:03 87° NNW 21:01:10 10° ENE
Cosmos 1420 Rocket 4.1 20:52:52 10° SSW 20:58:05 79° WNW 21:03:19 10° NNE
STARLINK-1270 2.8 20:55:46 10° WSW 20:58:54 87° N 21:02:02 10° ENE
STARLINK-1116 3.6 20:55:12 10° WNW 20:59:19 64° SSW 21:01:58 21° SE
MTI 3.6 20:57:34 10° NNE 21:00:44 84° ESE 21:02:33 23° S
STARLINK-1189 2.8 20:57:37 10° WSW 21:00:45 86° NNW 21:03:53 10° ENE
Cosmos 1766 3.7 20:57:03 10° N 21:00:56 49° ENE 21:03:05 23° SE
STARLINK-1197 3.5 20:56:54 10° WSW 21:01:01 68° SSE 21:05:08 10° ENE
STARLINK-1103 3.8 20:57:26 10° WNW 21:01:37 76° N 21:05:45 10° E
STARLINK-1188 2.8 20:58:29 10° WSW 21:01:37 85° NNW 21:04:46 10° ENE
NOSS 2-3 (D) 4.3 20:57:45 10° WSW 21:02:10 64° NW 21:07:35 10° NE
STARLINK-1235 2.9 20:59:13 10° W 21:02:18 77° NNW 21:05:25 10° ENE
SL-4 R/B 3.2 21:01:57 12° ENE 21:02:27 12° ENE 21:03:28 10° NE
STARLINK-1187 2.9 20:59:38 10° WSW 21:02:43 80° NNW 21:05:49 10° ENE
Meteor 1-13 Rocket 4.5 20:57:31 10° SSW 21:03:04 69° WNW 21:08:48 10° N
STARLINK-1191 2.8 21:00:59 10° WSW 21:04:06 83° NNW 21:07:12 10° ENE
USA 215 3.2 20:58:28 13° SE 21:04:26 80° SSW 21:11:02 10° WNW
Cosmos 371 Rocket 3.3 21:00:07 10° SSW 21:04:58 87° ESE 21:09:53 10° NNE
STARLINK-1221 2.8 21:01:52 10° WSW 21:04:58 83° NNW 21:08:05 10° ENE
Meteor 1-23 Rocket 4.2 21:01:01 16° S 21:05:42 76° E 21:11:22 10° NNE
STARLINK-1222 2.9 21:02:45 10° WSW 21:05:51 82° NNW 21:08:58 10° ENE
STARLINK-1198 3.5 21:01:50 10° WSW 21:05:57 71° SSE 21:10:05 10° ENE
STARLINK-1101 3.7 21:02:25 10° WNW 21:06:35 77° N 21:10:44 10° E
STARLINK-1214 2.9 21:03:40 10° WSW 21:06:46 82° NNW 21:09:53 10° ENE
Cosmos 1461 4.0 21:06:45 24° SE 21:07:48 26° ESE 21:11:27 10° ENE
Cosmos 1674 Rocket 3.6 21:04:49 15° SSW 21:08:20 77° WNW 21:12:45 10° N
Abrixas rocket 2.1 21:06:05 10° WSW 21:08:56 46° S 21:09:45 34° SE
STARLINK-1094 3.7 21:05:11 10° WNW 21:09:15 57° SSW 21:11:33 24° SE
STARLINK-1199 3.5 21:06:50 10° WSW 21:10:57 74° SSE 21:15:07 10° ENE
STARLINK-1102 3.7 21:07:25 10° WNW 21:11:36 79° NNE 21:15:45 10° E
deb Kosmos-1763 3.9 21:09:01 10° NNW 21:12:39 85° ENE 21:14:21 29° SSE
STARLINK-1269 4.3 21:11:51 23° S 21:13:30 31° SE 21:17:10 10° E
STARLINK-1117 3.8 21:10:10 10° WNW 21:14:13 54° SSW 21:16:19 26° SE
Cosmos 1378 Rocket 3.6 21:12:35 19° SSW 21:15:48 84° W 21:20:14 10° N
STARLINK-1210 3.5 21:11:47 10° WSW 21:15:55 77° SSE 21:20:04 10° ENE
STARLINK-1111 3.7 21:12:23 10° WNW 21:16:34 81° NNE 21:20:43 10° E
SPOT 5 4.2 21:12:28 12° SSW 21:16:45 35° W 21:21:37 10° NNW
Meteor 1-22 Rocket 4.4 21:11:35 10° N 21:17:38 72° ENE 21:21:29 22° SSE
STARLINK-1200 4.3 21:16:39 23° S 21:18:28 33° SE 21:22:12 10° E
Nadezhda 4 Rocket 4.0 21:13:37 16° S 21:18:46 88° W 21:24:57 10° N
STARLINK-1078 3.8 21:15:08 10° WNW 21:19:10 51° SSW 21:21:06 27° SSE
Cosmos 1733 3.4 21:16:53 10° N 21:20:42 62° ENE 21:22:28 29° SSE
STARLINK-1219 3.5 21:16:45 10° WSW 21:20:54 81° SSE 21:25:03 10° ENE
STARLINK-1073 3.6 21:17:23 10° WNW 21:21:33 83° NNE 21:25:43 10° ESE
NOSS 3-1 (A) 4.3 21:16:44 10° WSW 21:22:24 53° NNW 21:29:07 10° NE
ATLAS CENTAUR R/B 3.4 21:21:40 10° NW 21:23:00 17° N 21:24:24 10° NE
STARLINK-1192 4.2 21:21:25 22° SSW 21:23:25 35° SE 21:27:12 10° E
STARLINK-1108 3.9 21:20:08 10° WNW 21:24:08 48° SSW 21:25:53 29° SSE
ATLAS 3B R/B 4.1 21:19:37 10° NW 21:25:47 36° NNE 21:32:04 10° E
STARLINK-1211 3.5 21:21:42 10° WSW 21:25:51 84° SSE 21:30:01 10° ENE
Cosmos 1975 Rocket 3.5 21:23:46 26° SSE 21:25:54 47° E 21:30:11 10° NNE
STARLINK-1121 3.6 21:22:21 10° WNW 21:26:31 85° NNE 21:30:29 11° ESE
JB-3 4.4 21:22:18 10° NNE 21:26:31 87° WNW 21:29:08 22° SSW
STARLINK-1244 4.1 21:26:11 21° SSW 21:28:21 37° SE 21:32:11 10° ENE
NOSS 2-2 (E) 4.0 21:27:52 28° SE 21:28:22 30° ESE 21:31:56 10° ENE
TSX-5 4.4 21:24:06 15° SSW 21:28:53 64° ESE 21:33:21 10° NE
STARLINK-1071 4.0 21:25:07 10° WNW 21:29:06 45° SSW 21:30:39 30° SSE
Cosmos 2297 3.8 21:25:26 19° S 21:29:27 61° ESE 21:35:05 10° NE
CENTAUR R/B 3.7 21:22:29 10° NW 21:30:02 57° NE 21:38:31 10° ESE
STARLINK-1245 3.5 21:26:42 10° WSW 21:30:52 87° SSE 21:35:01 10° ENE
STARLINK-1106 3.6 21:27:20 10° WNW 21:31:30 87° NNE 21:35:16 12° ESE
BREEZE-M DEB (TANK) 4.2 21:21:10 10° WNW 21:32:55 44° SW 21:35:38 24° SSE
STARLINK-1110 4.1 21:29:20 10° WNW 21:33:16 43° SSW 21:34:41 31° SSE
STARLINK-1138 4.0 21:30:58 20° SSW 21:33:18 40° SSE 21:37:12 10° ENE
STARLINK-1203 4.0 21:32:36 17° SSW 21:35:30 42° SSE 21:39:28 10° ENE
STARLINK-1233 3.5 21:31:40 10° WSW 21:35:49 89° SSE 21:39:59 10° ENE
STARLINK-1112 3.5 21:32:19 10° WNW 21:36:30 90° SSE 21:40:03 14° ESE
ERBS 2.1 21:33:32 10° SW 21:36:50 80° SSE 21:40:11 10° ENE
STARLINK-1143 3.9 21:35:45 20° SSW 21:38:16 42° SSE 21:42:11 10° ENE
Cosmos 1242 Rocket 3.8 21:37:35 24° ESE 21:38:29 27° E 21:41:38 10° NE
STARLINK-1124 4.2 21:35:07 10° WNW 21:39:01 40° SSW 21:40:14 32° S
STARLINK-1204 3.6 21:36:40 10° WSW 21:40:49 88° NNW 21:44:59 10° ENE
Cosmos 2082 Rocket 3.4 21:35:50 10° NW 21:40:53 33° WSW 21:44:18 18° SSW
NOSS 8 (E) 4.0 21:40:14 33° SSW 21:41:25 71° SE 21:44:29 10° NE
STARLINK-1128 3.5 21:37:19 10° WNW 21:41:29 87° SSW 21:44:50 15° ESE
STARLINK-1241 3.9 21:40:29 18° SW 21:43:13 45° SSE 21:47:10 10° ENE
Cosmos 1470 3.4 21:39:52 10° N 21:43:39 45° ENE 21:45:16 28° SE
STARLINK-1122 4.2 21:40:07 10° WNW 21:43:58 38° SW 21:45:00 32° S
Okean 1 Rocket 4.3 21:40:00 10° NNW 21:44:05 36° W 21:46:51 18° SSW
SeaSat 1 2.4 21:39:17 10° NNE 21:44:15 89° E 21:48:18 16° SSW
STARLINK-1238 3.6 21:41:36 10° WSW 21:45:46 86° NNW 21:49:56 10° ENE
STARLINK-1113 3.5 21:42:17 10° WNW 21:46:27 84° SSW 21:49:36 17° ESE
Cosmos 1110 Rocket 3.9 21:43:28 21° SSW 21:46:57 81° ESE 21:52:10 10° NNE
STARLINK-1239 3.8 21:45:15 17° SW 21:48:10 48° SSE 21:52:10 10° ENE
STARLINK-1126 4.3 21:45:04 10° W 21:48:51 35° SW 21:49:44 32° S
STARLINK-1201 3.6 21:46:37 10° WSW 21:50:46 83° NNW 21:54:56 10° ENE
NOSS 2-2 (C) 3.7 21:50:29 35° SSE 21:51:04 38° SE 21:54:48 10° NE
STARLINK-1119 3.5 21:47:16 10° WNW 21:51:25 81° SSW 21:54:23 19° ESE
Cosmos 1805 4.1 21:47:53 10° NNW 21:51:36 41° W 21:53:26 25° SSW
ATLAS 2AS CENTAUR R/B 4.3 21:48:30 18° SE 21:51:39 23° ESE 21:57:30 10° ENE
EO 1 Del DPAF 3.2 21:48:01 10° NNE 21:51:49 81° WNW 21:53:37 30° SSW
SL-4 R/B 3.8 21:50:51 10° W 21:52:06 12° WSW 21:52:33 12° WSW
Aureole 2 Rocket 2.2 21:51:13 33° SW 21:52:28 73° WNW 21:55:33 10° NNE
STARLINK-1240 3.7 21:50:02 16° SW 21:53:08 50° SSE 21:57:10 10° ENE
BREEZE-M DEB (TANK) 4.2 21:40:26 10° WNW 21:53:43 60° SSW 21:56:23 23° SE
Cosmos 304 Rocket 3.9 21:50:10 17° SSW 21:53:50 73° WNW 21:58:39 10° NNE
STARLINK-1082 4.4 21:50:08 10° W 21:53:52 33° SW 21:54:35 31° SSW
Cosmos 968 Rocket 4.0 21:49:35 10° NNW 21:54:40 52° ENE 21:58:02 20° SE
STARLINK-1206 3.7 21:51:36 10° W 21:55:45 81° NNW 21:59:55 10° ENE
Okean 2 3.4 21:53:51 29° SSW 21:55:52 81° W 22:00:03 10° N
NOSS 3-2 (A) 4.0 21:48:50 10° NW 21:56:12 88° SW 22:02:51 17° SE
STARLINK-1114 3.5 21:52:16 10° WNW 21:56:25 78° SSW 21:59:10 20° ESE
Cosmos 1092 Rocket 4.1 21:52:19 20° SSW 21:56:45 75° W 22:02:56 10° N
Cosmos 1455 Rocket 3.0 21:52:47 10° NNW 21:57:10 80° W 21:59:07 32° S
STARLINK-1216 3.7 21:54:49 15° SW 21:58:06 53° SSE 22:02:09 10° ENE
STARLINK-1100 4.5 21:55:08 10° W 21:58:49 31° SW 21:59:21 30° SSW
Helios 1A 3.7 21:57:21 24° SE 21:59:27 45° ENE 22:03:27 10° N
Cosmos 2369 Rocket 2.9 21:57:14 26° SSE 21:59:36 37° ESE 22:04:46 10° NE
STARLINK-1205 3.7 21:56:35 10° W 22:00:44 79° NNW 22:04:54 10° ENE
STARLINK-1130 (DARKSAT) 3.5 21:57:13 10° WNW 22:01:22 75° SSW 22:03:56 22° ESE
ISS -2.1 21:59:18 10° W 22:01:21 21° SW 22:01:21 21° SW
STARLINK-1237 3.6 21:59:35 14° SW 22:03:04 57° SSE 22:07:09 10° ENE
Cosmos 1486 Rocket 4.1 21:58:06 10° NNW 22:03:27 75° ENE 22:06:31 26° SE
USA 238 DEB 3.8 21:56:19 10° NW 22:03:30 83° SW 22:08:58 20° SE
USA 238 3.8 21:56:25 10° NW 22:03:36 83° SW 22:09:06 20° SE
Meteor 1-21 4.3 22:01:12 27° S 22:04:20 68° E 22:09:56 10° NNE
Cosmos 1378 4.2 22:02:30 20° SW 22:04:37 40° WNW 22:08:10 10° N
STARLINK-1218 3.7 22:01:34 10° W 22:05:43 77° N 22:09:52 10° ENE
STARLINK-1084 3.5 22:02:12 10° WNW 22:06:21 72° SSW 22:08:43 24° ESE
Cosmos 1842 3.2 22:05:25 34° SSW 22:07:04 80° W 22:11:00 10° N
STARLINK-1202 3.6 22:04:22 12° SW 22:08:03 60° SSE 22:12:09 10° ENE
OPS 6432 4.4 22:07:07 10° NW 22:10:11 61° SW 22:11:02 44° S
Cosmos 1025 Rocket 3.5 22:08:42 31° SE 22:10:16 46° E 22:14:23 10° NNE
Cosmos 1943 Rocket 2.3 22:07:35 28° S 22:10:26 58° ESE 22:15:56 10° NE
STARLINK-1254 3.7 22:06:33 10° W 22:10:42 76° N 22:14:52 10° ENE
Cosmos 1331 Rocket 4.1 22:07:06 20° SSW 22:10:45 75° WNW 22:15:58 10° NNE
STARLINK-1098 3.5 22:07:13 10° WNW 22:11:20 68° SSW 22:13:31 26° SE
SL-8 R/B 3.8 22:10:03 10° W 22:14:44 52° SSW 22:17:57 19° SE
Cosmos 1302 Rocket 4.0 22:12:14 28° S 22:15:00 69° ESE 22:20:18 10° NNE
Helios 1B rocket 4.4 22:12:25 10° NE 22:15:13 17° E 22:16:32 15° ESE
STARLINK-1231 3.8 22:11:34 10° W 22:15:43 74° N 22:19:52 10° ENE
STARLINK-1123 3.5 22:12:11 10° WNW 22:16:18 65° SSW 22:18:17 29° SE
Meteor 2-13 Rocket 4.5 22:12:50 24° SSW 22:16:46 82° WNW 22:22:59 10° N
STARLINK-1246 3.5 22:13:53 10° WSW 22:17:58 66° SSE 22:22:06 10° ENE
Cosmos 2278 Rocket 4.1 22:13:08 10° WSW 22:18:01 29° NW 22:22:58 10° NNE
STARLINK-1232 3.8 22:16:33 10° W 22:20:42 73° N 22:24:51 10° ENE
Terra 4.2 22:18:46 10° WSW 22:20:50 13° W 22:22:55 10° WNW
ALOS 2 2.6 22:19:22 34° S 22:21:13 70° WSW 22:25:37 10° NNW
STARLINK-1097 3.6 22:17:10 10° WNW 22:21:16 62° SSW 22:23:04 31° SE
ATLAS 5 CENTAUR R/B 2.6 22:23:07 25° ESE 22:23:07 25° ESE 22:24:24 10° ENE
STARLINK-1224 3.5 22:18:49 10° WSW 22:22:56 70° SSE 22:27:05 10° ENE
Lacrosse 5 3.4 22:19:47 10° W 22:23:14 19° SW 22:24:00 18° SW
STARLINK-1228 3.4 22:20:11 10° WNW 22:23:31 67° N 22:26:51 10° E
Thor Agena Rocket 4.3 22:18:56 10° N 22:24:04 51° WNW 22:28:06 16° SW
S3M 3.9 22:18:10 10° N 22:24:20 85° E 22:27:54 27° SSE
Cosmos 1536 Rocket 3.7 22:23:49 34° SSE 22:25:28 58° E 22:29:45 10° NNE
STARLINK-1208 3.8 22:21:31 10° W 22:25:40 72° N 22:29:49 10° E
Cosmos 1655 Rocket 4.1 22:22:34 27° S 22:26:05 67° E 22:32:17 10° NNE
STARLINK-1099 3.6 22:22:07 10° WNW 22:26:13 58° SSW 22:27:49 33° SE
STARLINK-1234 3.2 22:23:12 10° WNW 22:26:19 65° N 22:29:26 10° E
Meteor 2-8 Rocket 4.4 22:20:28 10° N 22:26:38 87° E 22:30:10 27° S
Cosmos 292 Rocket 4.1 22:25:11 32° SSE 22:27:07 53° ESE 22:31:51 10° NNE
Landsat 4 4.4 22:23:40 10° NNE 22:27:12 40° E 22:28:08 34° SE
STARLINK-1212 3.3 22:24:33 10° W 22:27:39 63° N 22:30:45 10° E
STARLINK-1225 3.5 22:23:48 10° WSW 22:27:56 73° SSE 22:32:05 10° ENE
STARLINK-1105 3.3 22:25:02 10° W 22:28:07 63° N 22:31:11 10° E
STARLINK-1209 3.2 22:25:07 10° WNW 22:28:16 67° N 22:31:25 10° E
STARLINK-1247 3.3 22:25:56 10° W 22:29:02 63° N 22:32:08 10° E
STARLINK-1227 3.3 22:26:24 10° W 22:29:29 63° N 22:32:34 10° E
STARLINK-1226 3.3 22:27:15 10° W 22:30:21 63° N 22:33:28 10° E
COSMOS 2455 4.3 22:28:32 17° SE 22:30:40 21° ESE 22:34:58 10° ENE
STARLINK-1271 3.8 22:26:32 10° W 22:30:41 71° N 22:34:49 10° E
STARLINK-1104 3.7 22:27:07 10° WNW 22:31:11 55° SSW 22:32:37 35° SSE
STARLINK-1215 3.3 22:28:12 10° W 22:31:17 63° N 22:34:24 10° E
SL-4 R/B 2.7 22:31:54 19° WNW 22:31:54 19° WNW 22:33:12 10° NW
GEOS 3 Rocket 4.1 22:26:54 10° ESE 22:32:01 60° NE 22:37:16 10° NW
Cosmos 1544 Rocket 4.0 22:28:42 10° NNW 22:32:53 48° W 22:34:36 30° SSW
STARLINK-1230 3.5 22:28:45 10° WSW 22:32:54 76° SSE 22:37:03 10° ENE
STARLINK-1217 3.3 22:29:58 10° WNW 22:33:04 64° N 22:36:10 10° E
BREEZE-M DEB (TANK) 2.8 22:24:04 10° WSW 22:33:11 65° S 22:36:10 10° E
STARLINK-1229 3.3 22:30:53 10° WNW 22:34:00 64° N 22:37:06 10° E
STARLINK-1270 3.3 22:31:45 10° WNW 22:34:51 64° N 22:37:58 10° E
Cosmos 1726 2.2 22:31:30 10° N 22:35:12 66° ENE 22:36:25 39° SSE
STARLINK-1154 3.9 22:31:31 10° W 22:35:40 71° N 22:39:49 10° E
STARLINK-1144 3.7 22:32:07 10° WNW 22:36:09 52° SSW 22:37:24 37° SSE
Cosmos 2228 4.2 22:32:28 10° N 22:36:24 35° ENE 22:38:43 20° SE
STARLINK-1189 3.2 22:33:35 10° WNW 22:36:42 64° N 22:39:48 10° E
STARLINK-1188 3.2 22:34:28 10° WNW 22:37:35 65° N 22:40:42 10° E
STARLINK-1243 3.5 22:33:43 10° WSW 22:37:52 79° SSE 22:42:02 10° ENE
STARLINK-1235 3.1 22:35:11 10° WNW 22:38:17 67° N 22:41:22 10° E
STARLINK-1187 3.2 22:35:36 10° WNW 22:38:40 66° N 22:41:47 10° E
SL-27 R/B 3.0 22:35:25 10° NW 22:38:54 45° WSW 22:39:37 39° SW
STARLINK-1191 3.2 22:36:57 10° WNW 22:40:02 65° N 22:43:09 10° E
STARLINK-1197 3.9 22:36:31 10° W 22:40:39 70° N 22:44:48 10° E
STARLINK-1221 3.2 22:37:50 10° WNW 22:40:55 65° N 22:44:00 10° E
STARLINK-1103 3.8 22:37:06 10° WNW 22:41:07 49° SSW 22:42:11 38° SSE
STARLINK-1222 3.2 22:38:43 10° WNW 22:41:49 65° N 22:44:54 10° E
Cosmos 1553 Rocket 4.3 22:35:45 10° NNW 22:41:58 58° W 22:45:31 26° SSW
Cosmos 1953 2.2 22:38:18 10° N 22:42:21 90° SSW 22:43:45 39° S
STARLINK-1214 3.2 22:39:39 10° WNW 22:42:44 65° N 22:45:49 10° E
STARLINK-1236 3.5 22:38:42 10° WSW 22:42:51 83° SSE 22:47:01 10° ENE
Cosmos 1340 Rocket 2.9 22:39:56 10° N 22:43:58 73° ENE 22:45:32 36° SSE
Cosmos 1833 4.1 22:38:41 10° NNW 22:44:23 90° ESE 22:47:49 25° SSE
STARLINK-1198 3.9 22:41:28 10° W 22:45:37 70° N 22:49:45 10° E
STARLINK-1101 3.9 22:42:05 10° WNW 22:46:04 46° SSW 22:46:57 39° S
Cosmos 1461 3.7 22:43:04 13° WSW 22:46:39 53° NW 22:51:01 10° NE
Cosmos 1992 Rocket 4.3 22:45:08 31° S 22:47:25 54° ESE 22:52:30 10° NNE
Cosmos 1271 Rocket 2.8 22:46:32 37° SSW 22:47:55 71° WNW 22:51:49 10° N
USA 215 4.1 22:45:48 25° SSW 22:48:05 31° SW 22:53:46 10° WNW
STARLINK-1199 3.9 22:46:30 10° W 22:50:39 70° N 22:54:47 10° E
Cosmos 1758 4.1 22:46:54 10° NNW 22:50:42 40° W 22:52:04 30° SW
STARLINK-1102 3.9 22:47:06 10° WNW 22:51:03 44° SSW 22:51:45 39° S
COSMOS 2487 3.1 22:48:57 10° NNW 22:52:21 49° ENE 22:53:49 29° ESE
STARLINK-1269 3.5 22:48:38 10° WSW 22:52:47 88° SSE 22:56:57 10° ENE
Cosmos 1656 Rocket 4.1 22:52:30 29° S 22:55:06 50° ESE 23:00:29 10° NE
Cosmos 1707 2.9 22:53:56 36° SSW 22:55:23 64° WNW 22:59:17 10° N
STARLINK-1210 3.9 22:51:28 10° W 22:55:37 69° N 22:59:45 10° E
STARLINK-1111 4.0 22:52:05 10° WNW 22:56:00 41° SSW 22:56:31 39° SSW
In-Cosmos 22 4.1 22:54:02 30° S 22:56:41 69° E 23:01:57 10° NNE
STARLINK-1200 3.5 22:53:38 10° WSW 22:57:47 89° NNW 23:01:57 10° ENE
Cosmos 1606 Rocket 3.8 22:55:19 10° N 22:59:37 59° ENE 23:01:42 28° SSE
NOSS 2-2 (D) 3.7 22:57:14 20° WSW 22:59:37 60° NW 23:03:54 10° NE
Meteor 1-16 Rocket 4.1 22:54:48 10° NNW 23:00:28 81° W 23:03:23 29° S
YAOGAN 11 4.2 22:58:51 35° S 23:00:34 61° WSW 23:04:54 10° NNW
STARLINK-1219 3.9 22:56:28 10° W 23:00:37 70° N 23:04:45 10° E
STARLINK-1073 4.1 22:57:05 10° WNW 23:00:58 39° SSW 23:01:19 38° SSW
NOSS 3-2 (C) 4.1 22:53:42 10° NW 23:01:03 64° SW 23:07:07 20° SSE
Cosmos 1626 4.2 22:59:58 15° ESE 23:01:30 18° E 23:04:05 10° NE
STARLINK-1192 3.6 22:58:36 10° WSW 23:02:46 86° NNW 23:06:57 10° ENE
Cosmos 2297 Rocket 4.3 22:58:51 10° NNW 23:03:35 26° NE 23:08:17 10° E
Cosmos 2292 Rocket 3.3 23:02:09 35° S 23:03:55 88° E 23:07:34 10° N
CZ-4 R/B 4.1 22:59:15 10° NNE 23:04:02 56° E 23:06:12 30° SSE
STARLINK-1211 3.9 23:01:26 10° W 23:05:35 70° N 23:09:43 10° E
STARLINK-1121 4.2 23:02:04 10° W 23:05:54 36° SW 23:06:04 36° SSW
APEX 4.4 23:02:48 26° SSW 23:06:39 74° ESE 23:12:13 10° NE
STARLINK-1244 3.6 23:03:34 10° WSW 23:07:44 84° NNW 23:11:54 10° ENE
STARLINK-1245 3.9 23:06:26 10° W 23:10:35 70° N 23:14:44 10° E
STARLINK-1106 4.3 23:07:05 10° W 23:10:51 34° SW 23:10:51 34° SW
Meteor 2-10 4.4 23:06:44 10° NNW 23:11:38 48° W 23:13:53 28° SSW
Timation 2 Rocket 4.5 23:06:17 10° NNW 23:12:40 59° NE 23:18:44 10° SE
STARLINK-1138 3.6 23:08:34 10° WSW 23:12:43 82° NNW 23:16:54 10° ENE
NOSS 3-4 (A) 3.8 23:10:07 28° S 23:13:00 48° ESE 23:19:05 10° NE
Aureole 3 3.1 23:09:15 10° NNW 23:13:06 62° W 23:13:55 44° SSW
NOSS 3-4 (C) 3.8 23:10:13 28° S 23:13:06 48° ESE 23:19:11 10° NE
Cosmos 1242 Rocket 4.2 23:11:36 19° WSW 23:13:19 27° WNW 23:16:31 10° N
ERBS 4.0 23:10:18 10° W 23:13:24 34° NNW 23:16:30 10° ENE
SL-4 R/B 3.6 23:13:39 23° SE 23:13:56 24° SE 23:17:43 10° E
PSLV R/B 3.9 23:09:28 10° NNE 23:14:06 61° ESE 23:16:05 31° S
STARLINK-1203 3.7 23:10:56 10° W 23:15:09 81° NNW 23:19:23 10° ENE
STARLINK-1233 3.9 23:11:25 10° W 23:15:34 71° N 23:19:42 10° E
STARLINK-1112 4.4 23:12:06 10° W 23:15:39 32° SW 23:15:39 32° SW
ATLAS 3B R/B 2.7 23:10:29 10° NW 23:17:17 86° NE 23:24:18 10° SE
Cosmos 1777 Rocket 4.4 23:12:20 10° NNW 23:17:32 63° ENE 23:21:42 16° SE
STARLINK-1143 3.7 23:13:33 10° W 23:17:43 80° N 23:21:53 10° ENE
SL-16 R/B 3.7 23:12:18 10° SE 23:17:53 38° ENE 23:23:30 10° N
Cosmos 1674 2.6 23:18:32 40° S 23:19:46 72° E 23:23:33 10° NNE
Cosmos 2266 Rocket 4.0 23:16:09 26° SSW 23:19:47 72° WNW 23:25:52 10° N
STARLINK-1204 3.8 23:16:25 10° W 23:20:34 71° N 23:24:43 10° E
CENTAUR R/B 3.3 23:13:17 10° NW 23:21:06 60° SW 23:27:41 18° SSE
ATLAS CENTAUR R/B 2.7 23:20:47 25° SE 23:21:51 28° ESE 23:25:26 10° ENE
Cosmos 1503 Rocket 4.4 23:17:27 10° NW 23:22:30 47° WSW 23:24:51 29° SSW
STARLINK-1241 3.7 23:18:32 10° W 23:22:41 78° N 23:26:51 10° ENE
STARLINK-1238 3.8 23:21:22 10° W 23:25:31 72° N 23:29:40 10° E
STARLINK-1239 3.7 23:23:31 10° W 23:27:41 76° N 23:31:50 10° ENE
STARLINK-1201 3.8 23:26:23 10° WNW 23:30:32 73° N 23:34:41 10° E
BREEZE-M DEB (TANK) 3.5 23:29:20 10° W 23:32:39 42° SSW 23:38:18 10° SE
STARLINK-1240 3.8 23:28:31 10° W 23:32:40 75° N 23:36:50 10° ENE
Cosmos 1867 3.6 23:27:16 10° NW 23:32:41 63° SW 23:36:08 22° SSE
STARLINK-1206 3.8 23:31:22 10° WNW 23:35:31 75° N 23:39:40 10° E
STARLINK-1216 3.8 23:33:30 10° W 23:37:39 74° N 23:41:49 10° ENE
Cosmos 1908 3.5 23:35:04 10° NNW 23:38:47 50° W 23:40:02 35° SSW
Cosmos 2227 Rocket 3.7 23:34:16 10° NNW 23:39:30 36° NE 23:44:41 10° ESE
Cosmos 1892 Rocket 3.7 23:37:41 29° S 23:39:49 68° E 23:44:12 10° NNE
STARLINK-1205 3.8 23:36:21 10° WNW 23:40:31 76° N 23:44:39 10° E
ATLAS 2AS CENTAUR R/B 3.1 23:35:53 21° SSW 23:41:38 77° SE 23:49:33 10° NE
STARLINK-1237 3.8 23:38:30 10° W 23:42:39 73° N 23:46:48 10° E
Meteor 1-24 Rocket 3.9 23:39:53 24° SSE 23:43:00 59° E 23:48:19 10° NNE
Cosmos 2369 Rocket 3.0 23:38:58 15° WSW 23:43:33 48° NW 23:49:02 10° NNE
RESURS DK-1 3.7 23:43:24 21° SSE 23:45:01 28° ESE 23:48:34 10° NE
CZ-2D R/B 3.5 23:40:36 10° NE 23:45:09 28° E 23:48:55 13° SSE
STARLINK-1218 3.7 23:41:20 10° WNW 23:45:29 78° N 23:49:38 10° E
Cosmos 1809 Rocket 4.5 23:42:06 25° S 23:45:56 87° E 23:52:10 10° NNE
Cosmos 1356 Rocket 4.4 23:42:26 10° N 23:46:24 43° ENE 23:49:42 14° SE
STARLINK-1202 3.8 23:43:30 10° W 23:47:38 72° N 23:51:48 10° E
ADEOS II 4.5 23:45:12 10° NE 23:47:43 13° E 23:50:13 10° ESE
Cosmos 1726 Rocket 3.7 23:43:30 10° NNW 23:47:46 58° W 23:49:41 30° SSW
Cosmos 2315 Rocket 4.4 23:42:40 10° NNW 23:48:37 49° W 23:52:11 24° SSW
STARLINK-1254 3.7 23:46:19 10° WNW 23:50:29 79° N 23:54:39 10° E
Helios 1B rocket 2.7 23:46:46 10° N 23:50:50 58° WNW 23:52:51 28° SW
Cosmos 1943 Rocket 3.6 23:49:32 10° WSW 23:54:31 33° NW 23:59:35 10° NNE
STARLINK-1231 3.7 23:51:19 10° WNW 23:55:29 81° NNE 23:59:38 10° E
